GW5444 Weather Reports


Display with metric or nautical units.
time (UTC)temp
F
wind
direction
speed
MPH
gust
MPH
rain 1hr
in
rain 24hr
in
rain mn
in
humidity
%
barometer
mb
20260906111003 71 68 0.0 1.0 0.00 0.00 0.00 95 1010.8
20260906110503 71 0 0.0 0.0 0.00 0.00 0.00 95 1010.7
20260906110024 71 261 0.0 1.0 0.00 0.00 0.00 95 1010.7
20260906105503 71 306 0.0 1.0 0.00 0.00 0.00 95 1010.7
20260906105003 71 312 0.0 1.0 0.00 0.00 0.00 95 1010.7
20260906104524 71 344 0.0 1.0 0.00 0.00 0.00 95 1010.6
20260906104025 71 334 0.0 1.0 0.00 0.00 0.00 95 1010.6
20260906103503 71 299 0.0 1.0 0.00 0.00 0.00 95 1010.6
20260906103003 71 331 0.0 3.0 0.00 0.00 0.00 95 1010.5
20260906102504 71 324 0.0 3.0 0.00 0.00 0.00 95 1010.4
20260906102004 71 320 0.0 2.0 0.00 0.00 0.00 95 1010.3
20260906101503 71 336 0.0 2.0 0.00 0.00 0.00 95 1010.3
20260906101003 71 343 0.0 3.0 0.00 0.00 0.00 95 1010.2
20260906100503 71 352 0.0 3.0 0.00 0.00 0.00 95 1010.2
20260906100005 71 4 0.0 1.0 0.00 0.00 0.00 96 1010.1
20260906095504 71 336 0.0 1.0 0.00 0.00 0.00 96 1010.1
20260906095003 71 335 0.0 1.0 0.00 0.00 0.00 96 1010.1
20260906094524 70 336 0.0 1.0 0.00 0.00 0.00 96 1010.1
20260906094024 70 335 0.0 1.0 0.00 0.00 0.00 96 1010.0
20260906093504 70 334 0.0 1.0 0.00 0.00 0.00 96 1010.0
20260906093004 70 0 0.0 0.0 0.00 0.00 0.00 96 1009.9
20260906092503 70 0 0.0 0.0 0.00 0.00 0.00 96 1009.9
20260906092003 70 0 0.0 0.0 0.00 0.00 0.00 96 1009.9
20260906091503 70 0 0.0 0.0 0.00 0.00 0.00 95 1009.9
20260906091003 70 0 0.0 0.0 0.00 0.00 0.00 95 1010.0
20260906090503 70 0 0.0 0.0 0.00 0.00 0.00 95 1009.9
20260906090003 70 0 0.0 0.0 0.00 0.00 0.00 95 1009.8
20260906085503 70 0 0.0 0.0 0.00 0.00 0.00 94 1009.9
20260906085024 70 0 0.0 0.0 0.00 0.00 0.00 94 1009.8
20260906084504 71 0 0.0 0.0 0.00 0.00 0.00 94 1009.7
20260906084025 71 0 0.0 0.0 0.00 0.00 0.00 94 1009.7
20260906083504 71 0 0.0 0.0 0.00 0.00 0.00 94 1009.7
20260906083003 71 0 0.0 0.0 0.00 0.00 0.00 94 1009.5
20260906082503 71 0 0.0 0.0 0.00 0.00 0.00 94 1009.5
20260906082003 71 0 0.0 0.0 0.00 0.00 0.00 94 1009.5
20260906081503 71 0 0.0 0.0 0.00 0.00 0.00 94 1009.5
20260906081005 72 0 0.0 0.0 0.00 0.00 0.00 94 1009.5
20260906080503 72 0 0.0 0.0 0.00 0.00 0.00 93 1009.5
20260906080003 72 0 0.0 0.0 0.00 0.00 0.00 93 1009.6
20260906075503 72 0 0.0 0.0 0.00 0.00 0.00 93 1009.6
20260906075024 72 0 0.0 0.0 0.00 0.00 0.00 93 1009.7
20260906074503 72 0 0.0 0.0 0.00 0.00 0.00 93 1009.8
20260906074003 72 0 0.0 0.0 0.00 0.00 0.00 93 1009.8
20260906073503 72 0 0.0 0.0 0.00 0.00 0.00 93 1009.7
20260906073003 72 0 0.0 0.0 0.00 0.00 0.00 92 1009.9
20260906072524 72 0 0.0 0.0 0.00 0.00 0.00 93 1009.9
20260906072003 72 0 0.0 0.0 0.00 0.00 0.00 93 1009.9
20260906071525 73 0 0.0 0.0 0.00 0.00 0.00 93 1009.9
20260906071003 72 0 0.0 0.0 0.00 0.00 0.00 92 1010.0
20260906070503 73 0 0.0 0.0 0.00 0.00 0.00 92 1010.0
20260906070003 73 0 0.0 0.0 0.00 0.00 0.00 92 1010.1
20260906065503 73 0 0.0 0.0 0.00 0.00 0.00 92 1010.2
20260906065004 73 0 0.0 0.0 0.00 0.00 0.00 91 1010.2
20260906064503 73 0 0.0 0.0 0.00 0.00 0.00 91 1010.2
20260906064003 74 0 0.0 0.0 0.00 0.00 0.00 91 1010.3
20260906063503 74 0 0.0 0.0 0.00 0.00 0.00 90 1010.2
20260906063003 74 0 0.0 0.0 0.00 0.00 0.00 90 1010.3
20260906062504 74 0 0.0 0.0 0.00 0.00 0.00 89 1010.5
20260906062004 74 209 0.0 1.0 0.00 0.00 0.00 89 1010.5
20260906061503 75 197 0.0 1.0 0.00 0.00 0.00 88 1010.3
20260906061003 75 42 0.0 1.0 0.00 0.00 0.00 87 1010.3
20260906060503 75 40 0.0 1.0 0.00 0.00 0.00 87 1010.2
20260906060003 75 59 0.0 1.0 0.00 0.00 0.00 87 1010.0
20260906055503 75 79 0.0 1.0 0.00 0.00 0.00 87 1010.0
20260906055003 75 0 0.0 0.0 0.00 0.00 0.00 87 1010.0
20260906054503 75 0 0.0 0.0 0.00 0.00 0.00 87 1010.0
20260906054024 75 61 0.0 1.0 0.00 0.00 0.00 88 1010.1
20260906053503 75 45 0.0 2.0 0.00 0.00 0.00 88 1010.1
20260906053004 75 36 0.0 2.0 0.00 0.00 0.00 89 1010.1
20260906052503 74 346 0.0 1.0 0.00 0.00 0.00 90 1010.1
20260906052003 74 0 0.0 0.0 0.00 0.00 0.00 90 1010.2
20260906051504 74 0 0.0 0.0 0.00 0.00 0.00 89 1010.3
20260906051003 74 0 0.0 0.0 0.00 0.00 0.00 89 1010.3
20260906050504 74 0 0.0 0.0 0.00 0.00 0.00 87 1010.4
20260906050004 75 0 0.0 0.0 0.00 0.00 0.00 87 1010.5
20260906045503 75 0 0.0 0.0 0.00 0.00 0.00 86 1010.5
20260906045004 75 0 0.0 0.0 0.00 0.00 0.00 86 1010.4
20260906044503 75 0 0.0 0.0 0.00 0.00 0.00 86 1010.4
20260906044003 75 348 0.0 1.0 0.00 0.00 0.00 86 1010.5
20260906043525 75 348 0.0 1.0 0.00 0.00 0.00 86 1010.4
20260906043024 76 0 0.0 0.0 0.00 0.00 0.00 86 1010.2
20260906042524 76 0 0.0 0.0 0.00 0.00 0.00 85 1010.4
20260906042003 76 0 0.0 0.0 0.00 0.00 0.00 85 1010.5
20260906041504 76 323 0.0 2.0 0.00 0.00 0.00 85 1010.5
20260906041024 76 323 0.0 2.0 0.00 0.00 0.00 85 1010.5
20260906040504 76 23 0.0 1.0 0.00 0.00 0.00 86 1010.4
20260906040005 76 337 0.0 3.0 0.00 0.00 0.00 87 1010.3
20260906035504 75 336 0.0 3.0 0.00 0.00 0.00 88 1010.4
20260906035003 75 247 0.0 1.0 0.00 0.00 0.00 89 1010.2
20260906034503 75 247 0.0 1.0 0.00 0.00 0.00 89 1010.1
20260906034024 75 0 0.0 0.0 0.00 0.00 0.00 90 1009.8
20260906033503 75 0 0.0 0.0 0.00 0.00 0.00 89 1009.7
20260906033004 75 0 0.0 0.0 0.00 0.00 0.00 89 1009.7
20260906032524 75 248 0.0 1.0 0.00 0.00 0.00 89 1009.7
20260906032004 75 248 0.0 1.0 0.00 0.00 0.00 89 1009.7
20260906031504 75 0 0.0 0.0 0.00 0.00 0.00 88 1009.4
20260906031004 75 0 0.0 0.0 0.00 0.00 0.00 88 1009.4
20260906030503 75 0 0.0 0.0 0.00 0.00 0.00 88 1009.5
20260906030003 75 0 0.0 0.0 0.00 0.00 0.00 88 1009.5
20260906025503 75 0 0.0 0.0 0.00 0.00 0.00 88 1009.5
20260906025003 75 0 0.0 0.0 0.00 0.00 0.00 88 1009.6
20260906024504 75 0 0.0 0.0 0.00 0.00 0.00 87 1009.6
20260906024003 76 0 0.0 0.0 0.00 0.00 0.00 87 1009.6
20260906023504 76 0 0.0 0.0 0.00 0.00 0.00 87 1009.6
20260906023025 76 0 0.0 0.0 0.00 0.00 0.00 86 1009.6
20260906022503 76 0 0.0 0.0 0.00 0.00 0.00 87 1009.6
20260906022004 76 0 0.0 0.0 0.00 0.00 0.00 86 1009.6
20260906021503 76 0 0.0 0.0 0.00 0.00 0.00 85 1009.6
20260906021003 77 0 0.0 0.0 0.00 0.00 0.00 85 1009.5
20260906020503 77 0 0.0 0.0 0.00 0.00 0.00 84 1009.5
20260906020024 77 0 0.0 0.0 0.00 0.00 0.00 84 1009.5
20260906015525 77 0 0.0 0.0 0.00 0.00 0.00 84 1009.5
20260906015004 77 0 0.0 0.0 0.00 0.00 0.00 83 1009.5
20260906014503 77 0 0.0 0.0 0.00 0.00 0.00 82 1009.3
20260906014003 78 0 0.0 0.0 0.00 0.00 0.00 83 1009.3
20260906013503 78 0 0.0 0.0 0.00 0.00 0.00 83 1009.2
20260906013004 78 0 0.0 0.0 0.00 0.00 0.00 84 1009.0
20260906012504 78 0 0.0 0.0 0.00 0.00 0.00 83 1008.9
20260906012003 78 0 0.0 0.0 0.00 0.00 0.00 84 1008.8
20260906011524 78 0 0.0 0.0 0.00 0.00 0.00 83 1008.7
20260906011004 78 0 0.0 0.0 0.00 0.00 0.00 82 1008.8
20260906010503 79 0 0.0 0.0 0.00 0.00 0.00 82 1008.7
20260906010003 80 0 0.0 0.0 0.00 0.00 0.00 82 1008.7
20260906005504 80 0 0.0 0.0 0.00 0.00 0.00 81 1008.7
20260906005003 80 0 0.0 0.0 0.00 0.00 0.00 80 1008.7
20260906004504 81 294 0.0 1.0 0.00 0.00 0.00 79 1008.6
20260906004003 81 311 1.0 4.0 0.00 0.00 0.00 79 1008.7
20260906003525 81 307 1.0 4.0 0.00 0.00 0.00 79 1008.7
20260906003003 81 294 0.0 2.0 0.00 0.00 0.00 79 1008.8
20260906002504 82 0 0.0 0.0 0.00 0.00 0.00 78 1008.9
20260906002003 82 0 0.0 0.0 0.00 0.00 0.00 78 1008.9
20260906001503 83 0 0.0 0.0 0.00 0.00 0.00 76 1009.2
20260906001003 83 249 0.0 1.0 0.00 0.00 0.00 76 1009.2
20260906000503 84 249 0.0 1.0 0.00 0.00 0.00 75 1009.4
20260906000024 84 227 0.0 3.0 0.00 0.00 0.00 74 1009.4
20260905235503 84 179 1.0 3.0 0.00 0.00 0.00 74 1009.5
20260905235003 85 129 0.0 3.0 0.00 0.00 0.00 76 1009.5
20260905234503 86 0 0.0 0.0 0.00 0.00 0.00 73 1009.6
20260905234025 86 0 0.0 0.0 0.00 0.00 0.00 72 1009.5
20260905233503 87 0 0.0 0.0 0.00 0.00 0.00 71 1009.5
20260905233003 88 0 0.0 0.0 0.00 0.00 0.00 69 1009.3
20260905232504 88 0 0.0 0.0 0.00 0.00 0.00 68 1009.2
20260905232003 88 0 0.0 0.0 0.00 0.00 0.00 68 1009.2
20260905231504 89 0 0.0 0.0 0.00 0.00 0.00 67 1009.4
20260905231003 89 15 0.0 1.0 0.00 0.00 0.00 66 1009.3
20260905230504 90 15 0.0 1.0 0.00 0.00 0.00 65 1009.3
20260905230004 90 15 0.0 1.0 0.00 0.00 0.00 64 1009.3
20260905225503 90 15 0.0 1.0 0.00 0.00 0.00 64 1009.1
20260905225024 90 9 0.0 1.0 0.00 0.00 0.00 62 1009.0
20260905224504 91 327 0.0 1.0 0.00 0.00 0.00 62 1009.1
20260905224003 91 326 0.0 1.0 0.00 0.00 0.00 61 1009.1
20260905223504 91 351 0.0 3.0 0.00 0.00 0.00 61 1009.2
20260905223003 91 5 0.0 3.0 0.00 0.00 0.00 59 1009.0
20260905222503 91 357 0.0 3.0 0.00 0.00 0.00 60 1009.0
20260905222003 91 334 1.0 3.0 0.00 0.00 0.00 60 1009.0
20260905221504 91 317 1.0 3.0 0.00 0.00 0.00 59 1009.0
20260905221003 92 301 0.0 3.0 0.00 0.00 0.00 59 1009.0
20260905220503 92 290 0.0 3.0 0.00 0.00 0.00 59 1009.1
20260905220004 92 314 1.0 3.0 0.00 0.00 0.00 59 1009.1
20260905215524 92 322 1.0 5.0 0.00 0.00 0.00 58 1009.0
20260905215004 92 308 1.0 5.0 0.00 0.00 0.00 59 1009.1
20260905214503 93 287 1.0 3.0 0.00 0.00 0.00 58 1009.1
20260905214025 93 308 1.0 3.0 0.00 0.00 0.00 57 1009.1
20260905213525 93 345 2.0 5.0 0.00 0.00 0.00 57 1009.1
20260905213003 93 338 2.0 5.0 0.00 0.00 0.00 58 1009.0
20260905212504 93 324 1.0 6.0 0.00 0.00 0.00 60 1009.0
20260905212004 93 5 2.0 6.0 0.00 0.00 0.00 58 1009.1
20260905211524 93 4 2.0 5.0 0.00 0.00 0.00 57 1009.1
20260905211003 93 323 2.0 5.0 0.00 0.00 0.00 56 1009.2
20260905210503 93 307 1.0 4.0 0.00 0.00 0.00 55 1009.2
20260905210004 93 305 1.0 4.0 0.00 0.00 0.00 56 1009.3
20260905205503 93 310 2.0 5.0 0.00 0.00 0.00 57 1009.2
20260905205004 94 316 2.0 5.0 0.00 0.00 0.00 56 1009.3
20260905204503 94 322 2.0 6.0 0.00 0.00 0.00 55 1009.3
20260905204003 94 313 2.0 7.0 0.00 0.00 0.00 56 1009.3
20260905203503 94 308 2.0 7.0 0.00 0.00 0.00 55 1009.4
20260905203003 94 315 1.0 5.0 0.00 0.00 0.00 57 1009.4
20260905202503 94 340 2.0 7.0 0.00 0.00 0.00 57 1009.5
20260905202024 94 347 2.0 8.0 0.00 0.00 0.00 55 1009.6
20260905201503 94 331 2.0 8.0 0.00 0.00 0.00 56 1009.6
20260905201004 94 348 2.0 5.0 0.00 0.00 0.00 57 1009.7
20260905200503 94 1 2.0 5.0 0.00 0.00 0.00 56 1009.7
20260905200003 94 325 1.0 3.0 0.00 0.00 0.00 55 1009.7
20260905195504 95 282 1.0 3.0 0.00 0.00 0.00 54 1009.9
20260905195004 95 289 1.0 2.0 0.00 0.00 0.00 55 1009.9
20260905194503 96 293 0.0 2.0 0.00 0.00 0.00 54 1010.0
20260905194004 95 197 0.0 2.0 0.00 0.00 0.00 56 1010.1
20260905193524 94 154 1.0 4.0 0.00 0.00 0.00 56 1010.1
20260905193003 94 130 2.0 4.0 0.00 0.00 0.00 56 1010.1
20260905192524 94 95 1.0 3.0 0.00 0.00 0.00 55 1010.2
20260905192003 93 340 1.0 5.0 0.00 0.00 0.00 56 1010.3
20260905191504 93 72 1.0 6.0 0.00 0.00 0.00 54 1010.3
20260905191003 92 75 1.0 6.0 0.00 0.00 0.00 57 1010.3
20260905190504 92 56 1.0 4.0 0.00 0.00 0.00 57 1010.5
20260905190004 93 82 0.0 2.0 0.00 0.00 0.00 55 1010.6
20260905185504 94 141 1.0 2.0 0.00 0.00 0.00 56 1010.7
20260905185004 93 148 1.0 4.0 0.00 0.00 0.00 54 1010.7
20260905184504 93 164 1.0 4.0 0.00 0.00 0.00 58 1010.7
20260905184003 93 216 1.0 3.0 0.00 0.00 0.00 58 1010.7
20260905183503 93 273 1.0 2.0 0.00 0.00 0.00 57 1010.8
20260905183003 93 154 1.0 4.0 0.00 0.00 0.00 60 1010.9
20260905182503 92 136 1.0 5.0 0.00 0.00 0.00 56 1011.1
20260905182003 91 129 1.0 5.0 0.00 0.00 0.00 60 1011.2
20260905181504 91 93 2.0 4.0 0.00 0.00 0.00 60 1011.2
20260905181003 91 114 2.0 5.0 0.00 0.00 0.00 59 1011.3
20260905180503 91 133 2.0 5.0 0.00 0.00 0.00 59 1011.3
20260905180004 90 122 2.0 4.0 0.00 0.00 0.00 61 1011.2
20260905175504 91 129 2.0 4.0 0.00 0.00 0.00 59 1011.3
20260905175003 90 136 1.0 5.0 0.00 0.00 0.00 60 1011.4
20260905174504 90 138 1.0 5.0 0.00 0.00 0.00 60 1011.5
20260905174003 90 133 1.0 7.0 0.00 0.00 0.00 61 1011.5
20260905173503 90 136 2.0 7.0 0.00 0.00 0.00 60 1011.5
20260905173004 89 140 2.0 5.0 0.00 0.00 0.00 61 1011.5
20260905172524 89 151 2.0 6.0 0.00 0.00 0.00 63 1011.6
20260905172025 89 149 2.0 6.0 0.00 0.00 0.00 61 1011.6
20260905171504 89 157 1.0 5.0 0.00 0.00 0.00 63 1011.7
20260905171003 89 135 2.0 4.0 0.00 0.00 0.00 64 1011.7
20260905170504 88 137 3.0 6.0 0.00 0.00 0.00 62 1011.8
20260905170004 88 145 2.0 6.0 0.00 0.00 0.00 60 1011.8
20260905165504 88 137 2.0 6.0 0.00 0.00 0.00 65 1012.0
20260905165003 88 136 3.0 8.0 0.00 0.00 0.00 62 1012.0
20260905164503 87 132 3.0 8.0 0.00 0.00 0.00 63 1012.0
20260905164003 87 152 2.0 7.0 0.00 0.00 0.00 64 1012.0
20260905163503 87 163 2.0 7.0 0.00 0.00 0.00 66 1012.1
20260905163004 87 151 3.0 7.0 0.00 0.00 0.00 67 1011.9
20260905162527 86 140 3.0 7.0 0.00 0.00 0.00 66 1011.9
20260905153004 84 89 2.0 6.0 0.00 0.00 0.00 71 1012.6
20260905152525 83 86 2.0 5.0 0.00 0.00 0.00 70 1012.7
20260905152003 83 114 1.0 7.0 0.00 0.00 0.00 75 1012.7
20260905151503 82 82 2.0 8.0 0.00 0.00 0.00 73 1012.8
20260905151003 82 69 2.0 8.0 0.00 0.00 0.00 75 1012.8
20260905150504 81 101 2.0 6.0 0.00 0.00 0.00 77 1012.8
20260905150003 81 138 2.0 6.0 0.00 0.00 0.00 76 1012.8
20260905145503 80 154 1.0 5.0 0.00 0.00 0.00 77 1012.9
20260905145004 79 124 1.0 5.0 0.00 0.00 0.00 80 1012.9
20260905144504 78 85 1.0 4.0 0.00 0.00 0.00 80 1012.9
20260905144003 78 75 1.0 5.0 0.00 0.00 0.00 80 1013.0
20260905143525 78 84 1.0 5.0 0.00 0.00 0.00 79 1012.9
20260905143004 78 109 2.0 7.0 0.00 0.00 0.00 79 1013.0
20260905142503 78 122 2.0 7.0 0.00 0.00 0.00 78 1013.0
20260905142003 78 124 1.0 6.0 0.00 0.00 0.00 78 1013.1
20260905141524 78 92 1.0 7.0 0.00 0.00 0.00 78 1013.2
20260905141003 77 71 1.0 7.0 0.00 0.00 0.00 80 1013.3
20260905140503 77 73 1.0 7.0 0.00 0.00 0.00 79 1013.4
20260905140004 77 69 2.0 8.0 0.00 0.00 0.00 82 1013.4
20260905135503 76 60 3.0 11.0 0.00 0.00 0.00 82 1013.3
20260905135024 76 51 3.0 11.0 0.00 0.00 0.00 81 1013.3
20260905134503 76 32 4.0 12.0 0.00 0.00 0.00 81 1013.1
20260905134025 76 18 4.0 12.0 0.00 0.00 0.00 80 1013.3
20260905133503 77 24 4.0 11.0 0.00 0.00 0.00 80 1013.1
20260905133024 77 33 3.0 11.0 0.00 0.00 0.00 80 1013.2
20260905132503 76 22 2.0 11.0 0.00 0.00 0.00 83 1013.2
20260905132003 76 7 2.0 9.0 0.00 0.00 0.00 84 1013.4
20260905131504 75 357 2.0 9.0 0.00 0.00 0.00 84 1013.2
20260905131024 75 346 2.0 9.0 0.00 0.00 0.00 85 1013.3
20260905130524 74 22 1.0 7.0 0.00 0.00 0.00 85 1013.3
20260905130003 74 55 1.0 7.0 0.00 0.00 0.00 86 1013.0
20260905125503 74 28 0.0 2.0 0.00 0.00 0.00 87 1012.9
20260905125003 74 44 0.0 1.0 0.00 0.00 0.00 87 1012.9
20260905124503 74 35 0.0 1.0 0.00 0.00 0.00 86 1013.0
20260905124004 75 12 0.0 2.0 0.00 0.00 0.00 86 1013.0
20260905123504 75 2 0.0 2.0 0.00 0.00 0.00 86 1013.0
20260905123004 74 5 0.0 2.0 0.00 0.00 0.00 86 1013.0
20260905122503 74 5 0.0 2.0 0.00 0.00 0.00 86 1012.7
20260905122003 75 342 0.0 2.0 0.00 0.00 0.00 86 1012.7
20260905121503 75 8 0.0 2.0 0.00 0.00 0.00 86 1012.7
20260905121004 75 45 0.0 3.0 0.00 0.00 0.00 86 1012.6
20260905120503 75 64 1.0 4.0 0.00 0.00 0.00 87 1012.6
20260905120003 75 70 1.0 4.0 0.00 0.00 0.00 86 1012.4
20260905115503 75 360 1.0 4.0 0.00 0.00 0.00 86 1012.4
20260905115003 75 7 2.0 7.0 0.00 0.00 0.00 86 1012.4
20260905114503 76 355 2.0 9.0 0.00 0.00 0.00 87 1012.4
20260905114003 76 341 2.0 9.0 0.00 0.00 0.00 88 1012.3
20260905113524 75 356 1.0 9.0 0.00 0.00 0.00 91 1012.4
20260905113004 75 9 1.0 4.0 0.00 0.00 0.00 93 1012.0
20260905112503 75 8 1.0 5.0 0.00 0.00 0.00 95 1011.8
20260905112003 74 17 0.0 5.0 0.00 0.00 0.00 96 1011.8
20260905111503 74 0 0.0 0.0 0.00 0.00 0.00 96 1011.7